TimeCST,TemperatureF,Dew PointF,Humidity,Sea Level PressureIn,VisibilityMPH,Wind Direction,Wind SpeedMPH,Gust SpeedMPH,PrecipitationIn,Events,Conditions,WindDirDegrees,DateUTC
12:13 AM,21.2,19.4,93,29.56,10.0,Calm,Calm,-,N/A,,Clear,0,2012-02-22 06:13:00
12:33 AM,21.2,19.4,93,29.56,10.0,Calm,Calm,-,N/A,,Clear,0,2012-02-22 06:33:00
12:53 AM,19.4,19.4,100,29.55,10.0,WSW,4.6,-,N/A,,Clear,250,2012-02-22 06:53:00
1:13 AM,19.4,19.4,100,29.55,10.0,West,3.5,-,N/A,,Clear,280,2012-02-22 07:13:00
1:33 AM,21.2,19.4,93,29.54,10.0,West,4.6,-,N/A,,Clear,280,2012-02-22 07:33:00
1:53 AM,19.4,19.4,100,29.53,10.0,West,4.6,-,N/A,,Clear,280,2012-02-22 07:53:00
2:13 AM,19.4,19.4,100,29.53,10.0,West,3.5,-,N/A,,Clear,280,2012-02-22 08:13:00
2:33 AM,19.4,17.6,93,29.52,10.0,West,3.5,-,N/A,,Clear,270,2012-02-22 08:33:00
2:53 AM,21.2,19.4,93,29.51,10.0,WNW,5.8,-,N/A,,Clear,300,2012-02-22 08:53:00
3:13 AM,21.2,19.4,93,29.50,10.0,WNW,3.5,-,N/A,,Clear,300,2012-02-22 09:13:00
3:33 AM,17.6,17.6,100,29.50,10.0,Calm,Calm,-,N/A,,Clear,0,2012-02-22 09:33:00
3:53 AM,19.4,17.6,93,29.50,10.0,Calm,Calm,-,N/A,,Clear,0,2012-02-22 09:53:00
4:14 AM,17.6,17.6,100,29.50,10.0,Calm,Calm,-,N/A,,Clear,0,2012-02-22 10:14:00
4:33 AM,17.6,15.8,93,29.50,10.0,Calm,Calm,-,N/A,,Clear,0,2012-02-22 10:33:00
4:53 AM,17.6,17.6,100,29.50,10.0,NW,3.5,-,N/A,,Clear,310,2012-02-22 10:53:00
5:13 AM,17.6,17.6,100,29.49,10.0,West,3.5,-,N/A,,Clear,260,2012-02-22 11:13:00
5:33 AM,15.8,15.8,100,29.49,10.0,SW,3.5,-,N/A,,Clear,220,2012-02-22 11:33:00
6:14 AM,17.6,15.8,93,29.49,10.0,Calm,Calm,-,N/A,,Clear,0,2012-02-22 12:14:00
6:33 AM,15.8,15.8,100,29.49,10.0,SSW,3.5,-,N/A,,Clear,210,2012-02-22 12:33:00
6:53 AM,15.8,15.8,100,29.49,10.0,WSW,4.6,-,N/A,,Clear,240,2012-02-22 12:53:00
7:13 AM,15.8,15.8,100,29.50,10.0,WSW,3.5,-,N/A,,Clear,250,2012-02-22 13:13:00
7:53 AM,15.8,15.8,100,29.49,10.0,Calm,Calm,-,N/A,,Clear,0,2012-02-22 13:53:00
8:14 AM,17.6,15.8,93,29.49,10.0,Calm,Calm,-,N/A,,Clear,0,2012-02-22 14:14:00
8:33 AM,17.6,17.6,100,29.48,10.0,Calm,Calm,-,N/A,,Clear,0,2012-02-22 14:33:00
8:53 AM,19.4,17.6,93,29.48,10.0,Calm,Calm,-,N/A,,Clear,0,2012-02-22 14:53:00
9:13 AM,21.2,19.4,93,29.48,10.0,Calm,Calm,-,N/A,,Clear,0,2012-02-22 15:13:00
9:33 AM,23.0,19.4,86,29.48,10.0,Calm,Calm,-,N/A,,Scattered Clouds,0,2012-02-22 15:33:00
9:53 AM,23.0,19.4,86,29.49,10.0,West,5.8,-,N/A,,Mostly Cloudy,280,2012-02-22 15:53:00
10:13 AM,24.8,19.4,80,29.49,10.0,Calm,Calm,-,N/A,,Mostly Cloudy,0,2012-02-22 16:13:00
10:53 AM,26.6,21.2,80,29.48,10.0,Calm,Calm,-,N/A,,Scattered Clouds,0,2012-02-22 16:53:00
11:13 AM,26.6,21.2,80,29.48,10.0,West,4.6,-,N/A,,Mostly Cloudy,280,2012-02-22 17:13:00
11:32 AM,26.6,21.2,80,29.47,10.0,Calm,Calm,-,N/A,,Mostly Cloudy,0,2012-02-22 17:32:00
11:53 AM,26.6,21.2,80,29.47,10.0,WNW,3.5,-,N/A,,Mostly Cloudy,290,2012-02-22 17:53:00
12:13 PM,28.4,21.2,74,29.46,10.0,West,4.6,-,N/A,,Overcast,280,2012-02-22 18:13:00
12:32 PM,28.4,19.4,69,29.46,10.0,West,5.8,-,N/A,,Overcast,270,2012-02-22 18:32:00
12:53 PM,28.4,21.2,74,29.45,10.0,West,4.6,-,N/A,,Mostly Cloudy,260,2012-02-22 18:53:00
1:13 PM,28.4,21.2,74,29.44,10.0,WNW,4.6,-,N/A,,Mostly Cloudy,290,2012-02-22 19:13:00
1:33 PM,30.2,21.2,69,29.43,10.0,West,3.5,-,N/A,,Mostly Cloudy,280,2012-02-22 19:33:00
1:53 PM,30.2,21.2,69,29.43,10.0,WNW,3.5,-,N/A,,Mostly Cloudy,290,2012-02-22 19:53:00
2:14 PM,30.2,21.2,69,29.42,10.0,Calm,Calm,-,N/A,,Mostly Cloudy,0,2012-02-22 20:14:00
2:33 PM,30.2,21.2,69,29.42,10.0,WNW,3.5,-,N/A,,Mostly Cloudy,300,2012-02-22 20:33:00
2:53 PM,30.2,21.2,69,29.42,10.0,Calm,Calm,-,N/A,,Overcast,0,2012-02-22 20:53:00
3:13 PM,32.0,21.2,64,29.42,10.0,Calm,Calm,-,N/A,,Overcast,0,2012-02-22 21:13:00
3:33 PM,30.2,21.2,69,29.42,10.0,WNW,3.5,-,N/A,,Overcast,290,2012-02-22 21:33:00
3:53 PM,30.2,21.2,69,29.41,10.0,NW,3.5,-,N/A,,Overcast,310,2012-02-22 21:53:00
4:14 PM,30.2,21.2,69,29.41,10.0,Calm,Calm,-,N/A,,Mostly Cloudy,0,2012-02-22 22:14:00
4:33 PM,32.0,23.0,69,29.40,10.0,Calm,Calm,-,N/A,,Scattered Clouds,0,2012-02-22 22:33:00
4:53 PM,30.2,24.8,80,29.41,10.0,Calm,Calm,-,N/A,,Clear,0,2012-02-22 22:53:00
5:13 PM,30.2,23.0,75,29.41,10.0,Calm,Calm,-,N/A,,Clear,0,2012-02-22 23:13:00
5:33 PM,30.2,24.8,80,29.42,10.0,Calm,Calm,-,N/A,,Scattered Clouds,0,2012-02-22 23:33:00
5:53 PM,28.4,24.8,86,29.41,10.0,Calm,Calm,-,N/A,,Scattered Clouds,0,2012-02-22 23:53:00
6:14 PM,28.4,24.8,86,29.42,10.0,Calm,Calm,-,N/A,,Scattered Clouds,0,2012-02-23 00:14:00
6:33 PM,26.6,24.8,93,29.42,10.0,Calm,Calm,-,N/A,,Mostly Cloudy,0,2012-02-23 00:33:00
6:53 PM,28.4,24.8,86,29.42,10.0,Calm,Calm,-,N/A,,Overcast,0,2012-02-23 00:53:00
7:13 PM,26.6,24.8,93,29.42,10.0,Calm,Calm,-,N/A,,Overcast,0,2012-02-23 01:13:00
7:33 PM,28.4,24.8,86,29.41,10.0,Calm,Calm,-,N/A,,Overcast,0,2012-02-23 01:33:00
7:53 PM,28.4,24.8,86,29.41,10.0,SE,4.6,-,N/A,,Overcast,140,2012-02-23 01:53:00
8:13 PM,28.4,24.8,86,29.40,10.0,Calm,Calm,-,N/A,,Overcast,0,2012-02-23 02:13:00
8:33 PM,28.4,26.6,93,29.40,10.0,Calm,Calm,-,N/A,,Overcast,0,2012-02-23 02:33:00
8:53 PM,28.4,26.6,93,29.40,10.0,Calm,Calm,-,N/A,,Overcast,0,2012-02-23 02:53:00
9:13 PM,28.4,26.6,93,29.40,10.0,Calm,Calm,-,N/A,,Overcast,0,2012-02-23 03:13:00
9:33 PM,28.4,26.6,93,29.39,10.0,Calm,Calm,-,N/A,,Overcast,0,2012-02-23 03:33:00
9:53 PM,30.2,26.6,86,29.40,10.0,Calm,Calm,-,N/A,,Overcast,0,2012-02-23 03:53:00
10:13 PM,30.2,26.6,86,29.39,10.0,Calm,Calm,-,N/A,,Overcast,0,2012-02-23 04:13:00
10:53 PM,28.4,26.6,93,29.40,10.0,Calm,Calm,-,N/A,,Overcast,0,2012-02-23 04:53:00
11:13 PM,28.4,26.6,93,29.39,10.0,Calm,Calm,-,N/A,,Overcast,0,2012-02-23 05:13:00
11:33 PM,28.4,24.8,86,29.39,10.0,South,4.6,-,N/A,,Scattered Clouds,180,2012-02-23 05:33:00
11:54 PM,28.4,24.8,86,29.40,10.0,Calm,Calm,-,N/A,,Clear,0,2012-02-23 05:54:00